Back to catalog

STARLINK-4521

AliveCommunicationsVLEO
NORAD 53391·PAYLOAD·🇺🇸 United States

Launched Aug 10, 2022 from Cape Canaveral Space Force Station

Loading…

Next Passes (next 24 hours)

TLE

FreshSource: CelesTrak SupGP

Epoch: Sep 14, 2026, 14:13 UTC

1 53391C 22097D   26257.59284722  .00009624  00000+0  30977-3 0  2578
2 53391  53.1597 346.4343 0001391  92.3823  39.5643 15.31665604    19

Track STARLINK-4521 in real time with AllMySat

Download on the App Store